sat.trackr.live / text

‹ back to catalog

TIANHUI 6B

NORAD 55839 · 2023-030D

PAYLOAD ACTIVE UNKNOWN

§ Identity

Operator
Country
PRC
Launch date
2023-03-09
Launch site
TAISC
Launch vehicle
Mass (kg)
RCS (m²)

External: N2YO · Heavens-Above · Gunter

§ Orbital elements

Epoch: 2026-09-21T23:14:39.225120Z

Period
102.76 min
Inclination
99.0124°
Eccentricity
0.0002835
Mean motion
14.01326235 rev/d
Perigee alt
887.1 km
Apogee alt
891.3 km
Semi-major
7,267.3 km
B*
1.4247e-5
RAAN
272.0090°
Arg perigee
136.2525°
Mean anomaly
223.8865°
Rev number
18,094

§ Raw data

TIANHUI 6B1 55839U 23030D   26264.96850955 -.00000023  00000+0  14247-4 0  99922 55839  99.0124 272.0090 0002835 136.2525 223.8865 14.01326235180942

JSON: /api/v1/satellites/55839 · /tle

For live sub-satellite position, see the globe view (requires WebGL).

§ Visibility from observer

Set your observer location to see the next 7 days of passes ≥ 10°. The values pass through the URL so the page stays shareable.

No JS? Fill the form by hand. The geolocation button needs JavaScript.